West Coast Vancouver Island South: Past 24 Hour Conditions

 

Bella Bella Airport

10:00 AM PDT 18 September 2014
This table is a summary of hourly weather conditions for the past 24 hours.
Date / Time
(PDT)
Wind(knots) Conditions Visibility(km) Pressure(kPa) Air tempC) Relative humidity(%) Dew pointC)
18 September 2014
10:00 SSW 5 Light Rain 16 100.6 14 96 14
9:00 S 4 Light Rain 16 100.6 14 96 13
8:00 S 6 Cloudy 16 100.6 14 97 14
7:00 S 4 Light Rain 4 100.5 14 98 14
6:00 S 2 Light Rain 2 100.5 13 98 13
5:00 SSE 3 Light Rain 3 100.6 13 97 13
4:00 SSE 2 Cloudy 15 100.6 14 97 13
3:00 S 3 Light Rain 13 100.6 14 96 13
2:00 ESE 4 Light Rain 16 100.7 14 93 13
1:00 calm Cloudy 16 100.7 14 92 13
0:00 calm Cloudy 16 100.7 14 90 13
17 September 2014
23:00 calm Cloudy 16 100.7 13 93 12
22:00 calm Cloudy 16 100.7 13 91 12
21:00 calm Mostly Cloudy 16 100.8 14 87 12
20:00 N 2 Cloudy 16 100.8 15 84 13
19:00 ESE 2 Mostly Cloudy 16 100.8 17 74 13
18:00 S 2 Cloudy 16 100.8 18 72 13
17:00 calm Cloudy 16 100.9 18 72 13
16:00 N 2 Cloudy 16 100.9 17 73 12
15:00 NNW 3 Cloudy 16 101.0 17 73 12
14:00 N 3 Partly Cloudy 16 101.0 17 73 12
13:00 E 2 Mainly Sunny 16 101.0 16 75 12
12:00 SE 3 Sunny 16 101.0 16 77 12
11:00 calm Cloudy 16 101.0 15 80 11
10:00 S 3 Cloudy 16 101.0 14 85 11
 
Map of Pacific - South Coast marine weather areas Tsawwassen Ferry Terminal South Nomad - 46036 Sentry Shoal - 46131 South Brooks - 46132 Halibut Bank - 46146 South Moresby - 46147 South Hecate Strait - 46185 West Sea Otter - 46204 La Perouse Bank - 46206 East Dellwood - 46207 Discovery Island Esquimalt Harbour Kelp Reefs Malahat Race Rocks Lightstation Saturna Island Sheringham Point University of Victoria Victoria Gonzales Victoria Int'l Airport Ballenas Islands Campbell River Airport Comox Airport Entrance Island Fanny Island Nanaimo Airport Port Hardy Airport Sisters Islets Estevan Point Sartine Island Solander Island Tofino Airport Grief Point Powell River Airport Sechelt Cape St.James Bella Bella Airport Bella Coola Airport Cathedral Point Herbert Island Point Atkinson Sand Heads Lightstation Vancouver Harbour Vancouver Int'l Airport West Vancouver Port Alberni Howe Sound - Pam Rocks Squamish Airport